Time,TemperatureF,DewpointF,PressureIn,WindDirection,WindDirectionDegrees,WindSpeedMPH,WindSpeedGustMPH,Humidity,HourlyPrecipIn,Conditions,Clouds,dailyrainin,SoftwareType,DateUTC
2013-08-10 00:03:00,58.9,50.2,29.86,West,270,1.8,1.8,73,0.00,,,0.00,WUHU216HW,2013-08-10 07:03:00,
2013-08-10 00:08:00,58.7,50.0,29.86,NW,315,4.3,4.3,73,0.00,,,0.00,WUHU216HW,2013-08-10 07:08:00,
2013-08-10 00:13:00,58.5,49.9,29.86,WNW,293,2.9,4.5,73,0.00,,,0.00,WUHU216HW,2013-08-10 07:13:00,
2013-08-10 00:18:00,58.3,50.0,29.86,West,270,2.7,4.5,74,0.00,,,0.00,WUHU216HW,2013-08-10 07:18:00,
2013-08-10 00:23:00,58.1,49.9,29.87,West,270,3.4,4.3,74,0.00,,,0.00,WUHU216HW,2013-08-10 07:23:00,
2013-08-10 00:28:00,58.0,49.7,29.87,SW,225,0.4,4.3,74,0.00,,,0.00,WUHU216HW,2013-08-10 07:28:00,
2013-08-10 00:33:00,57.8,49.5,29.87,SSW,203,0.4,2.7,74,0.00,,,0.00,WUHU216HW,2013-08-10 07:33:00,
2013-08-10 00:38:00,57.6,49.3,29.87,SW,225,1.1,1.6,74,0.00,,,0.00,WUHU216HW,2013-08-10 07:38:00,
2013-08-10 00:43:00,57.4,49.5,29.88,West,270,0.0,1.6,75,0.00,,,0.00,WUHU216HW,2013-08-10 07:43:00,
2013-08-10 00:48:00,57.2,49.3,29.89,South,180,0.0,1.1,75,0.00,,,0.00,WUHU216HW,2013-08-10 07:48:00,
2013-08-10 00:53:00,57.2,49.3,29.90,WSW,248,6.7,6.7,75,0.00,,,0.00,WUHU216HW,2013-08-10 07:53:00,
2013-08-10 00:58:00,57.1,49.9,29.90,WNW,293,4.7,6.7,77,0.00,,,0.00,WUHU216HW,2013-08-10 07:58:00,
2013-08-10 01:03:00,56.9,49.7,29.90,NW,315,3.4,5.4,77,0.00,,,0.00,WUHU216HW,2013-08-10 08:03:00,
2013-08-10 01:08:00,56.9,49.3,29.91,West,270,1.8,5.4,76,0.00,,,0.00,WUHU216HW,2013-08-10 08:08:00,
2013-08-10 01:13:00,56.7,49.5,29.92,SE,135,1.8,4.7,77,0.00,,,0.00,WUHU216HW,2013-08-10 08:13:00,
2013-08-10 01:18:00,56.5,49.3,29.92,WSW,248,3.1,4.7,77,0.00,,,0.00,WUHU216HW,2013-08-10 08:18:00,
2013-08-10 01:23:00,56.5,49.3,29.93,WSW,248,3.4,4.5,77,0.00,,,0.00,WUHU216HW,2013-08-10 08:23:00,
2013-08-10 01:28:00,56.3,49.5,29.93,WNW,293,1.1,4.5,78,0.00,,,0.00,WUHU216HW,2013-08-10 08:28:00,
2013-08-10 01:34:00,56.2,49.3,29.93,ENE,68,0.4,5.1,78,0.00,,,0.00,WUHU216HW,2013-08-10 08:34:00,
2013-08-10 01:39:00,56.0,49.1,29.93,SSW,203,2.9,5.1,78,0.00,,,0.00,WUHU216HW,2013-08-10 08:39:00,
2013-08-10 01:44:00,56.0,49.5,29.94,SW,225,2.0,3.4,79,0.00,,,0.00,WUHU216HW,2013-08-10 08:44:00,
2013-08-10 01:49:00,55.8,49.3,29.94,NW,315,2.2,3.4,79,0.00,,,0.00,WUHU216HW,2013-08-10 08:49:00,
2013-08-10 01:54:00,55.8,49.3,29.94,West,270,1.3,2.9,79,0.00,,,0.00,WUHU216HW,2013-08-10 08:54:00,
2013-08-10 01:59:00,55.6,49.1,29.95,WSW,248,1.1,2.5,79,0.00,,,0.00,WUHU216HW,2013-08-10 08:59:00,
2013-08-10 02:04:00,55.6,49.1,29.95,ESE,113,1.8,3.6,79,0.00,,,0.00,WUHU216HW,2013-08-10 09:04:00,
2013-08-10 02:09:00,55.8,49.3,29.96,ENE,68,1.1,3.6,79,0.00,,,0.00,WUHU216HW,2013-08-10 09:09:00,
2013-08-10 02:14:00,56.0,49.9,29.96,South,180,0.9,3.4,80,0.00,,,0.00,WUHU216HW,2013-08-10 09:14:00,
2013-08-10 02:19:00,56.2,50.4,29.95,WNW,293,0.7,4.0,81,0.00,,,0.00,WUHU216HW,2013-08-10 09:19:00,
2013-08-10 02:24:00,56.3,50.2,29.96,NW,315,1.3,4.0,80,0.00,,,0.00,WUHU216HW,2013-08-10 09:24:00,
2013-08-10 02:29:00,56.3,50.6,29.96,North,0,1.3,2.0,81,0.00,,,0.00,WUHU216HW,2013-08-10 09:29:00,
2013-08-10 02:34:00,56.3,50.2,29.96,NNE,23,0.9,2.0,80,0.00,,,0.00,WUHU216HW,2013-08-10 09:34:00,
2013-08-10 02:39:00,56.3,50.6,29.96,SSE,158,1.6,1.8,81,0.00,,,0.00,WUHU216HW,2013-08-10 09:39:00,
2013-08-10 02:44:00,56.5,50.8,29.96,East,90,1.1,4.5,81,0.00,,,0.00,WUHU216HW,2013-08-10 09:44:00,
2013-08-10 02:49:00,56.9,51.1,29.96,SSW,203,0.2,4.5,81,0.00,,,0.00,WUHU216HW,2013-08-10 09:49:00,
2013-08-10 02:54:00,56.9,51.1,29.96,NW,315,1.1,1.8,81,0.00,,,0.00,WUHU216HW,2013-08-10 09:54:00,
2013-08-10 02:59:00,57.2,51.5,29.95,NW,315,2.9,3.1,81,0.00,,,0.00,WUHU216HW,2013-08-10 09:59:00,
2013-08-10 03:04:00,57.2,51.5,29.95,NW,315,2.2,3.1,81,0.00,,,0.00,WUHU216HW,2013-08-10 10:04:00,
2013-08-10 03:09:00,57.4,51.7,29.94,West,270,3.1,3.1,81,0.00,,,0.00,WUHU216HW,2013-08-10 10:09:00,
2013-08-10 03:14:00,57.4,51.3,29.94,WSW,248,1.6,3.4,80,0.00,,,0.00,WUHU216HW,2013-08-10 10:14:00,
2013-08-10 03:19:00,57.6,51.5,29.94,WSW,248,2.5,3.4,80,0.00,,,0.00,WUHU216HW,2013-08-10 10:19:00,
2013-08-10 03:24:00,57.6,51.5,29.93,WNW,293,2.7,2.7,80,0.00,,,0.00,WUHU216HW,2013-08-10 10:24:00,
2013-08-10 03:29:00,57.6,51.9,29.93,WNW,293,3.4,3.6,81,0.00,,,0.00,WUHU216HW,2013-08-10 10:29:00,
2013-08-10 03:34:00,57.6,51.9,29.93,West,270,2.7,4.0,81,0.00,,,0.00,WUHU216HW,2013-08-10 10:34:00,
2013-08-10 03:39:00,57.6,51.9,29.93,West,270,4.9,4.9,81,0.00,,,0.00,WUHU216HW,2013-08-10 10:39:00,
2013-08-10 03:44:00,57.6,51.9,29.91,West,270,3.4,7.6,81,0.00,,,0.00,WUHU216HW,2013-08-10 10:44:00,
2013-08-10 03:49:00,57.8,52.0,29.90,SE,135,0.7,7.6,81,0.00,,,0.00,WUHU216HW,2013-08-10 10:49:00,
2013-08-10 03:54:00,57.8,52.3,29.92,SSE,158,10.1,10.1,82,0.00,,,0.00,WUHU216HW,2013-08-10 10:54:00,
2013-08-10 03:59:00,57.8,52.0,29.92,SE,135,2.9,10.1,81,0.00,,,0.00,WUHU216HW,2013-08-10 10:59:00,
2013-08-10 04:04:00,57.8,52.0,29.92,ESE,113,1.1,7.6,81,0.00,,,0.00,WUHU216HW,2013-08-10 11:04:00,
2013-08-10 04:09:00,57.8,52.0,29.93,East,90,0.0,5.4,81,0.00,,,0.00,WUHU216HW,2013-08-10 11:09:00,
2013-08-10 04:14:00,57.8,52.0,29.92,ESE,113,1.6,2.0,81,0.00,,,0.00,WUHU216HW,2013-08-10 11:14:00,
2013-08-10 04:19:00,58.0,52.2,29.92,ESE,113,1.8,2.0,81,0.00,,,0.00,WUHU216HW,2013-08-10 11:19:00,
2013-08-10 04:24:00,58.0,52.2,29.92,ENE,68,3.6,3.6,81,0.00,,,0.00,WUHU216HW,2013-08-10 11:24:00,
2013-08-10 04:29:00,58.0,52.2,29.92,ESE,113,2.5,3.6,81,0.00,,,0.00,WUHU216HW,2013-08-10 11:29:00,
2013-08-10 04:34:00,58.1,52.4,29.92,ESE,113,4.0,6.3,81,0.00,,,0.00,WUHU216HW,2013-08-10 11:34:00,
2013-08-10 04:39:00,58.3,52.8,29.92,WSW,248,1.8,6.3,82,0.01,,,0.01,WUHU216HW,2013-08-10 11:39:00,
2013-08-10 04:44:00,58.3,53.2,29.92,WNW,293,1.3,3.4,83,0.01,,,0.01,WUHU216HW,2013-08-10 11:44:00,
2013-08-10 04:49:00,58.5,53.0,29.92,ENE,68,3.4,3.4,82,0.01,,,0.01,WUHU216HW,2013-08-10 11:49:00,
2013-08-10 04:54:00,58.3,53.2,29.93,NNE,23,0.7,3.4,83,0.01,,,0.01,WUHU216HW,2013-08-10 11:54:00,
2013-08-10 04:59:00,58.3,53.2,29.93,NNW,338,1.1,2.7,83,0.01,,,0.01,WUHU216HW,2013-08-10 11:59:00,
2013-08-10 05:04:00,58.3,53.2,29.93,East,90,1.1,1.6,83,0.01,,,0.01,WUHU216HW,2013-08-10 12:04:00,
2013-08-10 05:09:00,58.3,53.2,29.93,SE,135,2.5,3.4,83,0.01,,,0.01,WUHU216HW,2013-08-10 12:09:00,
2013-08-10 05:14:00,58.3,53.2,29.93,NE,45,1.3,3.4,83,0.01,,,0.01,WUHU216HW,2013-08-10 12:14:00,
2013-08-10 05:19:00,58.3,53.2,29.93,SE,135,0.4,1.8,83,0.01,,,0.01,WUHU216HW,2013-08-10 12:19:00,
2013-08-10 05:24:00,58.3,53.5,29.93,ESE,113,0.7,1.8,84,0.01,,,0.01,WUHU216HW,2013-08-10 12:24:00,
2013-08-10 05:29:00,58.3,53.5,29.93,WNW,293,0.9,1.8,84,0.01,,,0.01,WUHU216HW,2013-08-10 12:29:00,
2013-08-10 05:34:00,58.3,53.5,29.92,ESE,113,2.7,2.7,84,0.01,,,0.02,WUHU216HW,2013-08-10 12:34:00,
2013-08-10 05:39:00,58.3,53.5,29.92,SE,135,0.4,3.4,84,0.01,,,0.02,WUHU216HW,2013-08-10 12:39:00,
2013-08-10 05:44:00,58.3,53.5,29.93,SE,135,1.1,3.4,84,0.01,,,0.02,WUHU216HW,2013-08-10 12:44:00,
2013-08-10 05:49:00,58.3,53.5,29.93,West,270,3.4,3.4,84,0.01,,,0.02,WUHU216HW,2013-08-10 12:49:00,
2013-08-10 05:54:00,58.5,53.6,29.93,WSW,248,3.4,3.6,84,0.01,,,0.02,WUHU216HW,2013-08-10 12:54:00,
2013-08-10 05:59:00,58.3,53.5,29.92,West,270,3.6,5.4,84,0.01,,,0.02,WUHU216HW,2013-08-10 12:59:00,
2013-08-10 06:04:00,58.3,53.5,29.93,West,270,3.1,5.8,84,0.01,,,0.02,WUHU216HW,2013-08-10 13:04:00,
2013-08-10 06:09:00,58.1,53.3,29.93,West,270,0.9,5.8,84,0.01,,,0.02,WUHU216HW,2013-08-10 13:09:00,
2013-08-10 06:14:00,58.0,53.1,29.93,NW,315,3.6,4.7,84,0.01,,,0.02,WUHU216HW,2013-08-10 13:14:00,
2013-08-10 06:19:00,57.8,52.9,29.94,SW,225,2.2,4.7,84,0.01,,,0.02,WUHU216HW,2013-08-10 13:19:00,
2013-08-10 06:24:00,57.6,52.5,29.94,SW,225,2.2,2.9,83,0.01,,,0.02,WUHU216HW,2013-08-10 13:24:00,
2013-08-10 06:29:00,57.4,52.3,29.95,WSW,248,1.1,2.9,83,0.00,,,0.02,WUHU216HW,2013-08-10 13:29:00,
2013-08-10 06:34:00,57.4,52.6,29.96,WSW,248,1.8,1.8,84,0.00,,,0.02,WUHU216HW,2013-08-10 13:34:00,
2013-08-10 06:39:00,57.4,52.6,29.97,SW,225,2.5,6.7,84,0.00,,,0.02,WUHU216HW,2013-08-10 13:39:00,
2013-08-10 06:44:00,57.2,52.4,29.98,SSE,158,5.4,6.7,84,0.00,,,0.02,WUHU216HW,2013-08-10 13:44:00,
2013-08-10 06:49:00,57.2,52.4,29.98,SSE,158,2.2,6.0,84,0.00,,,0.02,WUHU216HW,2013-08-10 13:49:00,
2013-08-10 06:54:00,57.2,52.1,29.97,West,270,1.3,2.9,83,0.00,,,0.02,WUHU216HW,2013-08-10 13:54:00,
2013-08-10 06:59:00,57.2,52.1,29.97,NW,315,0.2,2.9,83,0.00,,,0.02,WUHU216HW,2013-08-10 13:59:00,
2013-08-10 07:04:00,57.2,52.4,29.97,NNW,338,0.4,3.1,84,0.00,,,0.02,WUHU216HW,2013-08-10 14:04:00,
2013-08-10 07:09:00,57.2,52.1,29.97,WNW,293,2.0,3.1,83,0.00,,,0.02,WUHU216HW,2013-08-10 14:09:00,
2013-08-10 07:14:00,57.2,52.1,29.96,SSW,203,0.4,3.4,83,0.00,,,0.02,WUHU216HW,2013-08-10 14:14:00,
2013-08-10 07:19:00,57.1,51.9,29.96,SSW,203,0.4,3.4,83,0.00,,,0.02,WUHU216HW,2013-08-10 14:19:00,
2013-08-10 07:24:00,57.1,51.9,29.96,WSW,248,0.4,1.6,83,0.00,,,0.02,WUHU216HW,2013-08-10 14:24:00,
2013-08-10 07:29:00,57.2,52.1,29.96,SW,225,1.1,1.6,83,0.00,,,0.02,WUHU216HW,2013-08-10 14:29:00,
2013-08-10 07:34:00,57.2,52.1,29.97,West,270,2.0,2.0,83,0.00,,,0.02,WUHU216HW,2013-08-10 14:34:00,
2013-08-10 07:39:00,57.2,52.1,29.96,WNW,293,2.7,2.7,83,0.00,,,0.02,WUHU216HW,2013-08-10 14:39:00,
2013-08-10 07:44:00,57.2,52.1,29.96,SSW,203,2.5,4.5,83,0.00,,,0.02,WUHU216HW,2013-08-10 14:44:00,
2013-08-10 07:49:00,57.2,52.1,29.96,WSW,248,0.4,4.5,83,0.00,,,0.02,WUHU216HW,2013-08-10 14:49:00,
2013-08-10 07:54:00,57.2,52.4,29.96,SW,225,0.4,1.8,84,0.00,,,0.02,WUHU216HW,2013-08-10 14:54:00,
2013-08-10 07:59:00,57.2,52.4,29.96,WSW,248,1.8,1.8,84,0.00,,,0.02,WUHU216HW,2013-08-10 14:59:00,
2013-08-10 08:04:00,57.4,52.6,29.97,WSW,248,1.6,1.8,84,0.00,,,0.02,WUHU216HW,2013-08-10 15:04:00,
2013-08-10 08:09:00,57.6,52.7,29.97,West,270,1.1,2.7,84,0.00,,,0.02,WUHU216HW,2013-08-10 15:09:00,
2013-08-10 08:14:00,57.8,52.9,29.97,West,270,1.8,2.7,84,0.00,,,0.02,WUHU216HW,2013-08-10 15:14:00,
2013-08-10 08:19:00,58.0,52.8,29.97,West,270,3.8,4.0,83,0.00,,,0.02,WUHU216HW,2013-08-10 15:19:00,
2013-08-10 08:24:00,58.0,52.8,29.96,SSW,203,1.1,4.0,83,0.00,,,0.02,WUHU216HW,2013-08-10 15:24:00,
2013-08-10 08:29:00,58.1,53.0,29.97,West,270,0.4,2.9,83,0.00,,,0.02,WUHU216HW,2013-08-10 15:29:00,
2013-08-10 08:34:00,58.3,53.2,29.97,WSW,248,1.8,2.2,83,0.00,,,0.02,WUHU216HW,2013-08-10 15:34:00,
2013-08-10 08:39:00,58.7,53.6,29.97,West,270,1.8,2.5,83,0.00,,,0.02,WUHU216HW,2013-08-10 15:39:00,
2013-08-10 08:44:00,58.9,53.7,29.96,WSW,248,3.4,3.6,83,0.00,,,0.02,WUHU216HW,2013-08-10 15:44:00,
2013-08-10 08:49:00,59.2,54.1,29.97,WNW,293,2.0,3.6,83,0.00,,,0.02,WUHU216HW,2013-08-10 15:49:00,
2013-08-10 08:54:00,59.2,54.1,29.97,WSW,248,0.9,2.5,83,0.00,,,0.02,WUHU216HW,2013-08-10 15:54:00,
2013-08-10 08:59:00,59.4,54.3,29.98,WSW,248,2.5,3.6,83,0.00,,,0.02,WUHU216HW,2013-08-10 15:59:00,
2013-08-10 09:04:00,59.6,54.1,29.98,NW,315,0.9,3.6,82,0.00,,,0.02,WUHU216HW,2013-08-10 16:04:00,
2013-08-10 09:09:00,59.6,54.1,29.98,West,270,1.8,2.7,82,0.00,,,0.02,WUHU216HW,2013-08-10 16:09:00,
2013-08-10 09:14:00,59.6,54.1,29.98,West,270,2.5,2.7,82,0.00,,,0.02,WUHU216HW,2013-08-10 16:14:00,
2013-08-10 09:19:00,59.6,54.1,29.98,West,270,2.7,3.4,82,0.00,,,0.02,WUHU216HW,2013-08-10 16:19:00,
2013-08-10 09:24:00,59.6,54.1,29.98,NW,315,2.5,3.4,82,0.00,,,0.02,WUHU216HW,2013-08-10 16:24:00,
2013-08-10 09:29:00,59.6,54.1,29.99,West,270,1.3,3.1,82,0.00,,,0.02,WUHU216HW,2013-08-10 16:29:00,
2013-08-10 09:34:00,59.8,54.3,29.99,WSW,248,2.0,2.5,82,0.00,,,0.02,WUHU216HW,2013-08-10 16:34:00,
2013-08-10 09:40:00,60.1,54.6,29.99,NNW,338,1.6,4.3,82,0.00,,,0.02,WUHU216HW,2013-08-10 16:40:00,
2013-08-10 09:45:00,60.3,54.6,29.99,WSW,248,1.6,4.3,81,0.00,,,0.02,WUHU216HW,2013-08-10 16:45:00,
2013-08-10 09:50:00,60.5,54.7,29.99,WSW,248,0.9,2.9,81,0.00,,,0.02,WUHU216HW,2013-08-10 16:50:00,
2013-08-10 09:55:00,60.8,55.1,29.99,SSW,203,1.3,2.2,81,0.00,,,0.02,WUHU216HW,2013-08-10 16:55:00,
2013-08-10 10:00:00,61.0,55.2,29.99,West,270,2.5,2.7,81,0.00,,,0.02,WUHU216HW,2013-08-10 17:00:00,
2013-08-10 10:05:00,61.2,55.1,29.99,NW,315,1.3,3.4,80,0.00,,,0.02,WUHU216HW,2013-08-10 17:05:00,
2013-08-10 10:10:00,61.6,55.4,29.99,NW,315,2.0,3.4,80,0.00,,,0.02,WUHU216HW,2013-08-10 17:10:00,
2013-08-10 10:15:00,61.6,55.4,29.99,SW,225,2.2,3.1,80,0.00,,,0.02,WUHU216HW,2013-08-10 17:15:00,
2013-08-10 10:20:00,61.7,55.2,29.99,West,270,2.0,3.1,79,0.00,,,0.02,WUHU216HW,2013-08-10 17:20:00,
2013-08-10 10:25:00,61.7,55.2,30.00,WNW,293,1.6,2.9,79,0.00,,,0.02,WUHU216HW,2013-08-10 17:25:00,
2013-08-10 10:30:00,61.7,55.2,30.00,SW,225,1.8,3.8,79,0.00,,,0.02,WUHU216HW,2013-08-10 17:30:00,
2013-08-10 10:35:00,61.9,55.4,30.00,SSW,203,0.0,3.8,79,0.00,,,0.02,WUHU216HW,2013-08-10 17:35:00,
2013-08-10 10:40:00,61.9,55.4,30.00,West,270,2.2,2.5,79,0.00,,,0.02,WUHU216HW,2013-08-10 17:40:00,
2013-08-10 10:45:00,61.7,55.2,30.00,West,270,2.2,2.5,79,0.00,,,0.02,WUHU216HW,2013-08-10 17:45:00,
2013-08-10 10:50:00,61.9,55.4,30.00,SW,225,2.2,2.9,79,0.00,,,0.02,WUHU216HW,2013-08-10 17:50:00,
2013-08-10 10:55:00,61.9,55.4,30.00,West,270,1.6,2.9,79,0.00,,,0.02,WUHU216HW,2013-08-10 17:55:00,
2013-08-10 11:00:00,61.9,55.4,30.00,West,270,0.0,2.5,79,0.00,,,0.02,WUHU216HW,2013-08-10 18:00:00,
2013-08-10 11:05:00,62.3,55.6,30.01,WSW,248,1.3,2.5,79,0.00,,,0.02,WUHU216HW,2013-08-10 18:05:00,
2013-08-10 11:10:00,62.5,55.8,30.01,WSW,248,2.0,2.9,79,0.00,,,0.02,WUHU216HW,2013-08-10 18:10:00,
2013-08-10 11:15:00,63.0,56.3,30.01,West,270,1.1,2.9,79,0.00,,,0.02,WUHU216HW,2013-08-10 18:15:00,
2013-08-10 11:20:00,63.7,57.4,30.01,West,270,1.3,2.0,80,0.00,,,0.02,WUHU216HW,2013-08-10 18:20:00,
2013-08-10 11:25:00,64.6,58.0,30.01,WNW,293,3.4,3.4,79,0.00,,,0.02,WUHU216HW,2013-08-10 18:25:00,
2013-08-10 11:30:00,65.7,58.7,30.00,WSW,248,3.8,4.5,78,0.00,,,0.02,WUHU216HW,2013-08-10 18:30:00,
2013-08-10 11:35:00,66.6,59.1,30.00,WSW,248,4.9,5.6,77,0.00,,,0.02,WUHU216HW,2013-08-10 18:35:00,
2013-08-10 11:40:00,66.8,59.0,30.01,West,270,4.3,6.3,76,0.00,,,0.02,WUHU216HW,2013-08-10 18:40:00,
2013-08-10 11:45:00,67.1,59.0,30.01,WSW,248,0.9,6.3,75,0.00,,,0.02,WUHU216HW,2013-08-10 18:45:00,
2013-08-10 11:50:00,67.5,59.0,30.00,WSW,248,6.3,6.3,74,0.00,,,0.02,WUHU216HW,2013-08-10 18:50:00,
2013-08-10 11:55:00,67.5,59.0,30.00,WNW,293,1.3,6.3,74,0.00,,,0.02,WUHU216HW,2013-08-10 18:55:00,
2013-08-10 12:00:00,67.1,58.2,30.00,West,270,4.7,4.9,73,0.00,,,0.02,WUHU216HW,2013-08-10 19:00:00,
2013-08-10 12:05:00,67.3,58.4,30.00,SW,225,4.7,4.7,73,0.00,,,0.02,WUHU216HW,2013-08-10 19:05:00,
2013-08-10 12:10:00,67.3,58.4,30.00,WSW,248,6.9,6.9,73,0.00,,,0.02,WUHU216HW,2013-08-10 19:10:00,
2013-08-10 12:15:00,67.7,58.3,30.00,WSW,248,5.4,7.6,72,0.00,,,0.02,WUHU216HW,2013-08-10 19:15:00,
2013-08-10 12:20:00,67.9,58.1,30.00,SW,225,6.3,7.6,71,0.00,,,0.02,WUHU216HW,2013-08-10 19:20:00,
2013-08-10 12:25:00,67.5,57.8,30.00,WSW,248,4.9,7.2,71,0.00,,,0.02,WUHU216HW,2013-08-10 19:25:00,
2013-08-10 12:30:00,67.7,58.0,30.00,SSE,158,4.0,7.2,71,0.00,,,0.02,WUHU216HW,2013-08-10 19:30:00,
2013-08-10 12:35:00,68.0,58.3,30.00,SSW,203,3.8,5.8,71,0.00,,,0.02,WUHU216HW,2013-08-10 19:35:00,
2013-08-10 12:40:00,68.2,58.2,30.00,SW,225,4.0,5.8,70,0.00,,,0.02,WUHU216HW,2013-08-10 19:40:00,
2013-08-10 12:45:00,68.2,58.2,30.01,ESE,113,2.5,5.4,70,0.00,,,0.02,WUHU216HW,2013-08-10 19:45:00,
2013-08-10 12:50:00,68.9,58.8,30.01,WSW,248,2.9,5.1,70,0.00,,,0.02,WUHU216HW,2013-08-10 19:50:00,
2013-08-10 12:55:00,69.5,59.2,30.00,WSW,248,6.9,6.9,70,0.00,,,0.02,WUHU216HW,2013-08-10 19:55:00,
2013-08-10 13:00:00,69.8,59.1,30.01,WSW,248,6.7,6.9,69,0.00,,,0.02,WUHU216HW,2013-08-10 20:00:00,
2013-08-10 13:05:00,69.8,58.8,30.01,SSW,203,3.4,6.7,68,0.00,,,0.02,WUHU216HW,2013-08-10 20:05:00,
2013-08-10 13:10:00,70.4,59.3,30.01,SSW,203,4.7,5.6,68,0.00,,,0.02,WUHU216HW,2013-08-10 20:10:00,
2013-08-10 13:15:00,70.9,59.9,30.01,South,180,2.2,4.7,68,0.00,,,0.02,WUHU216HW,2013-08-10 20:15:00,
2013-08-10 13:20:00,71.3,59.8,30.01,West,270,6.0,6.0,67,0.00,,,0.02,WUHU216HW,2013-08-10 20:20:00,
2013-08-10 13:25:00,71.5,59.5,30.01,WNW,293,1.8,6.0,66,0.00,,,0.02,WUHU216HW,2013-08-10 20:25:00,
2013-08-10 13:30:00,71.6,59.7,30.01,SW,225,5.4,8.5,66,0.00,,,0.02,WUHU216HW,2013-08-10 20:30:00,
2013-08-10 13:35:00,71.3,58.9,30.01,WSW,248,5.4,8.5,65,0.00,,,0.02,WUHU216HW,2013-08-10 20:35:00,
2013-08-10 13:40:00,71.3,58.9,30.01,WSW,248,8.7,8.7,65,0.00,,,0.02,WUHU216HW,2013-08-10 20:40:00,
2013-08-10 13:45:00,71.5,59.5,30.01,West,270,7.6,9.2,66,0.00,,,0.02,WUHU216HW,2013-08-10 20:45:00,
2013-08-10 13:50:00,71.5,59.0,30.01,SW,225,9.2,9.2,65,0.00,,,0.02,WUHU216HW,2013-08-10 20:50:00,
2013-08-10 13:55:00,71.6,59.7,30.01,WSW,248,9.8,9.8,66,0.00,,,0.02,WUHU216HW,2013-08-10 20:55:00,
2013-08-10 14:00:00,72.2,59.8,30.01,WSW,248,6.9,9.8,65,0.00,,,0.02,WUHU216HW,2013-08-10 21:00:00,
2013-08-10 14:05:00,73.3,60.8,30.01,WSW,248,6.7,9.2,65,0.00,,,0.02,WUHU216HW,2013-08-10 21:05:00,
2013-08-10 14:10:00,73.8,60.4,30.01,WSW,248,8.9,8.9,63,0.00,,,0.02,WUHU216HW,2013-08-10 21:10:00,
2013-08-10 14:15:00,74.0,60.1,30.01,SW,225,3.4,8.9,62,0.00,,,0.02,WUHU216HW,2013-08-10 21:15:00,
2013-08-10 14:20:00,74.2,60.8,30.01,WSW,248,6.9,10.3,63,0.00,,,0.02,WUHU216HW,2013-08-10 21:20:00,
2013-08-10 14:25:00,74.2,60.3,30.01,SW,225,6.7,10.3,62,0.00,,,0.02,WUHU216HW,2013-08-10 21:25:00,
2013-08-10 14:30:00,74.2,59.9,30.00,WSW,248,5.1,7.2,61,0.00,,,0.02,WUHU216HW,2013-08-10 21:30:00,
2013-08-10 14:35:00,74.2,60.3,30.01,SSE,158,2.5,8.5,62,0.00,,,0.02,WUHU216HW,2013-08-10 21:35:00,
2013-08-10 14:40:00,74.2,60.3,30.01,SW,225,8.3,9.2,62,0.00,,,0.02,WUHU216HW,2013-08-10 21:40:00,
2013-08-10 14:45:00,74.5,60.7,30.00,SSE,158,1.1,9.2,62,0.00,,,0.02,WUHU216HW,2013-08-10 21:45:00,
2013-08-10 14:50:00,74.7,60.9,30.00,SW,225,1.8,6.3,62,0.00,,,0.02,WUHU216HW,2013-08-10 21:50:00,
2013-08-10 14:55:00,74.5,60.2,30.00,WSW,248,3.4,5.8,61,0.00,,,0.02,WUHU216HW,2013-08-10 21:55:00,
2013-08-10 15:00:00,74.7,60.4,30.00,WSW,248,4.3,5.8,61,0.00,,,0.02,WUHU216HW,2013-08-10 22:00:00,
2013-08-10 15:05:00,74.9,60.6,30.00,SE,135,4.5,5.8,61,0.00,,,0.02,WUHU216HW,2013-08-10 22:05:00,
2013-08-10 15:10:00,74.9,60.6,29.99,South,180,5.6,5.8,61,0.00,,,0.02,WUHU216HW,2013-08-10 22:10:00,
2013-08-10 15:15:00,74.5,60.2,29.99,WSW,248,5.4,9.2,61,0.00,,,0.02,WUHU216HW,2013-08-10 22:15:00,
2013-08-10 15:20:00,74.7,60.4,29.99,WNW,293,5.4,9.2,61,0.00,,,0.02,WUHU216HW,2013-08-10 22:20:00,
2013-08-10 15:25:00,74.9,60.6,29.99,SW,225,6.3,8.3,61,0.00,,,0.02,WUHU216HW,2013-08-10 22:25:00,
2013-08-10 15:30:00,74.9,60.6,29.99,SW,225,4.0,8.1,61,0.00,,,0.02,WUHU216HW,2013-08-10 22:30:00,
2013-08-10 15:35:00,75.2,60.5,30.00,SE,135,4.0,6.3,60,0.00,,,0.02,WUHU216HW,2013-08-10 22:35:00,
2013-08-10 15:40:00,74.9,60.1,29.99,SE,135,1.8,4.0,60,0.00,,,0.02,WUHU216HW,2013-08-10 22:40:00,
2013-08-10 15:45:00,74.9,60.1,30.00,SW,225,5.4,6.7,60,0.00,,,0.02,WUHU216HW,2013-08-10 22:45:00,
2013-08-10 15:50:00,74.7,59.9,29.99,SW,225,6.9,6.9,60,0.00,,,0.02,WUHU216HW,2013-08-10 22:50:00,
2013-08-10 15:55:00,74.9,60.1,29.99,SSE,158,4.0,6.9,60,0.00,,,0.02,WUHU216HW,2013-08-10 22:55:00,
2013-08-10 16:00:00,74.9,59.6,29.99,SSW,203,2.5,5.4,59,0.00,,,0.02,WUHU216HW,2013-08-10 23:00:00,
2013-08-10 16:05:00,74.7,59.4,29.99,SSE,158,2.5,4.7,59,0.00,,,0.02,WUHU216HW,2013-08-10 23:05:00,
2013-08-10 16:11:00,74.7,59.4,29.99,East,90,3.6,6.0,59,0.00,,,0.02,WUHU216HW,2013-08-10 23:11:00,
2013-08-10 16:16:00,74.5,58.8,29.99,ESE,113,4.0,6.0,58,0.00,,,0.02,WUHU216HW,2013-08-10 23:16:00,
2013-08-10 16:21:00,74.5,59.2,29.98,ENE,68,3.8,5.4,59,0.00,,,0.02,WUHU216HW,2013-08-10 23:21:00,
2013-08-10 16:26:00,74.9,59.6,29.98,West,270,3.4,7.6,59,0.00,,,0.02,WUHU216HW,2013-08-10 23:26:00,
2013-08-10 16:31:00,75.2,59.9,29.98,SW,225,3.8,8.9,59,0.00,,,0.02,WUHU216HW,2013-08-10 23:31:00,
2013-08-10 16:36:00,75.6,59.8,29.98,WSW,248,5.8,8.9,58,0.00,,,0.02,WUHU216HW,2013-08-10 23:36:00,
2013-08-10 16:41:00,76.0,60.1,29.98,SW,225,5.6,7.6,58,0.00,,,0.02,WUHU216HW,2013-08-10 23:41:00,
2013-08-10 16:46:00,76.1,60.3,29.98,SSW,203,3.1,5.6,58,0.00,,,0.02,WUHU216HW,2013-08-10 23:46:00,
2013-08-10 16:51:00,76.1,59.8,29.98,SW,225,5.8,5.8,57,0.00,,,0.02,WUHU216HW,2013-08-10 23:51:00,
2013-08-10 16:56:00,75.8,59.0,29.98,SSE,158,3.4,5.8,56,0.00,,,0.02,WUHU216HW,2013-08-10 23:56:00,
2013-08-10 17:01:00,75.6,59.3,29.97,NW,315,4.5,4.5,57,0.00,,,0.02,WUHU216HW,2013-08-11 00:01:00,
2013-08-10 17:06:00,76.0,59.6,29.97,WNW,293,2.9,4.5,57,0.00,,,0.02,WUHU216HW,2013-08-11 00:06:00,
2013-08-10 17:11:00,76.1,59.8,29.97,WSW,248,4.3,5.8,57,0.00,,,0.02,WUHU216HW,2013-08-11 00:11:00,
2013-08-10 17:16:00,76.3,59.9,29.98,WSW,248,2.2,5.8,57,0.00,,,0.02,WUHU216HW,2013-08-11 00:16:00,
2013-08-10 17:21:00,76.3,59.9,29.97,SW,225,1.1,5.4,57,0.00,,,0.02,WUHU216HW,2013-08-11 00:21:00,
2013-08-10 17:26:00,76.3,59.4,29.97,WSW,248,2.7,3.6,56,0.00,,,0.02,WUHU216HW,2013-08-11 00:26:00,
2013-08-10 17:31:00,76.3,59.4,29.97,WSW,248,0.7,4.7,56,0.00,,,0.02,WUHU216HW,2013-08-11 00:31:00,
2013-08-10 17:36:00,76.1,59.3,29.97,South,180,1.6,4.7,56,0.00,,,0.02,WUHU216HW,2013-08-11 00:36:00,
2013-08-10 17:41:00,76.3,59.4,29.97,SE,135,2.7,3.6,56,0.00,,,0.02,WUHU216HW,2013-08-11 00:41:00,
2013-08-10 17:46:00,76.0,59.1,29.97,SE,135,3.6,7.6,56,0.00,,,0.02,WUHU216HW,2013-08-11 00:46:00,
2013-08-10 17:51:00,75.8,59.0,29.97,SSE,158,3.8,7.6,56,0.00,,,0.02,WUHU216HW,2013-08-11 00:51:00,
2013-08-10 18:01:00,75.4,58.6,29.97,SE,135,2.5,4.7,56,0.00,,,0.02,WUHU216HW,2013-08-11 01:01:00,
2013-08-10 18:06:00,75.4,58.6,29.97,SSE,158,1.6,5.4,56,0.00,,,0.02,WUHU216HW,2013-08-11 01:06:00,
2013-08-10 18:11:00,75.2,58.5,29.97,WNW,293,1.8,5.4,56,0.00,,,0.02,WUHU216HW,2013-08-11 01:11:00,
2013-08-10 18:16:00,75.1,58.3,29.98,South,180,4.7,4.7,56,0.00,,,0.02,WUHU216HW,2013-08-11 01:16:00,
2013-08-10 18:21:00,74.5,58.2,29.98,SW,225,1.3,4.7,57,0.00,,,0.02,WUHU216HW,2013-08-11 01:21:00,
2013-08-10 18:31:00,74.0,57.7,29.97,ENE,68,2.2,3.6,57,0.00,,,0.02,WUHU216HW,2013-08-11 01:31:00,
2013-08-10 18:36:00,73.8,58.1,29.97,ESE,113,3.4,3.8,58,0.00,,,0.02,WUHU216HW,2013-08-11 01:36:00,
2013-08-10 18:41:00,73.4,57.7,29.97,SSW,203,3.6,6.9,58,0.00,,,0.02,WUHU216HW,2013-08-11 01:41:00,
2013-08-10 18:46:00,73.1,57.3,29.97,SSE,158,0.9,6.9,58,0.00,,,0.02,WUHU216HW,2013-08-11 01:46:00,
2013-08-10 18:51:00,73.1,57.9,29.97,NNE,23,2.2,4.0,59,0.00,,,0.02,WUHU216HW,2013-08-11 01:51:00,
2013-08-10 18:56:00,73.1,57.9,29.97,ESE,113,4.7,4.7,59,0.00,,,0.02,WUHU216HW,2013-08-11 01:56:00,
2013-08-10 19:01:00,72.9,57.7,29.97,NW,315,0.9,5.1,59,0.00,,,0.02,WUHU216HW,2013-08-11 02:01:00,
2013-08-10 19:06:00,72.9,57.7,29.96,NE,45,3.4,5.1,59,0.00,,,0.02,WUHU216HW,2013-08-11 02:06:00,
2013-08-10 19:11:00,72.5,57.3,29.96,ESE,113,1.1,3.4,59,0.00,,,0.02,WUHU216HW,2013-08-11 02:11:00,
2013-08-10 19:16:00,72.4,57.3,29.97,SE,135,2.5,3.4,59,0.00,,,0.02,WUHU216HW,2013-08-11 02:16:00,
2013-08-10 19:21:00,72.2,57.5,29.97,WSW,248,1.6,3.4,60,0.00,,,0.02,WUHU216HW,2013-08-11 02:21:00,
2013-08-10 19:26:00,72.0,57.4,29.96,ESE,113,3.4,3.4,60,0.00,,,0.02,WUHU216HW,2013-08-11 02:26:00,
2013-08-10 19:31:00,71.8,57.3,29.96,ENE,68,1.3,4.3,60,0.00,,,0.02,WUHU216HW,2013-08-11 02:31:00,
2013-08-10 19:36:00,71.6,57.1,29.96,East,90,2.9,4.3,60,0.00,,,0.02,WUHU216HW,2013-08-11 02:36:00,
2013-08-10 19:41:00,71.6,57.5,29.96,SSE,158,2.9,4.9,61,0.00,,,0.02,WUHU216HW,2013-08-11 02:41:00,
2013-08-10 19:46:00,71.8,57.7,29.96,NNW,338,1.1,4.9,61,0.00,,,0.02,WUHU216HW,2013-08-11 02:46:00,
2013-08-10 19:51:00,71.6,57.5,29.97,West,270,1.6,2.9,61,0.00,,,0.02,WUHU216HW,2013-08-11 02:51:00,
2013-08-10 19:56:00,71.5,57.3,29.96,WNW,293,1.8,2.9,61,0.00,,,0.02,WUHU216HW,2013-08-11 02:56:00,
2013-08-10 20:01:00,70.9,56.4,29.97,North,0,1.8,3.1,60,0.00,,,0.02,WUHU216HW,2013-08-11 03:01:00,
2013-08-10 20:06:00,70.4,56.3,29.97,WNW,293,1.3,3.1,61,0.00,,,0.02,WUHU216HW,2013-08-11 03:06:00,
2013-08-10 20:11:00,70.0,56.0,29.98,WNW,293,2.5,3.4,61,0.00,,,0.02,WUHU216HW,2013-08-11 03:11:00,
2013-08-10 20:16:00,69.5,55.9,29.97,NW,315,2.5,3.6,62,0.00,,,0.02,WUHU216HW,2013-08-11 03:16:00,
2013-08-10 20:21:00,68.9,55.4,29.98,NW,315,1.8,3.6,62,0.00,,,0.02,WUHU216HW,2013-08-11 03:21:00,
2013-08-10 20:27:00,68.6,55.4,29.98,WSW,248,1.6,2.2,63,0.00,,,0.02,WUHU216HW,2013-08-11 03:27:00,
2013-08-10 20:32:00,68.0,54.9,29.98,West,270,2.9,2.9,63,0.00,,,0.02,WUHU216HW,2013-08-11 03:32:00,
2013-08-10 20:37:00,67.7,55.0,29.98,West,270,3.4,3.4,64,0.00,,,0.02,WUHU216HW,2013-08-11 03:37:00,
2013-08-10 20:42:00,67.3,54.7,29.98,WNW,293,2.7,3.4,64,0.00,,,0.02,WUHU216HW,2013-08-11 03:42:00,
2013-08-10 20:47:00,67.0,54.4,29.98,WSW,248,3.4,3.6,64,0.00,,,0.02,WUHU216HW,2013-08-11 03:47:00,
2013-08-10 20:53:00,66.6,54.0,29.99,SSW,203,1.1,3.6,64,0.00,,,0.02,WUHU216HW,2013-08-11 03:53:00,
2013-08-10 20:58:00,65.9,53.4,29.99,West,270,0.7,2.9,64,0.00,,,0.02,WUHU216HW,2013-08-11 03:58:00,
2013-08-10 21:03:00,65.5,53.0,29.99,North,0,1.1,2.9,64,0.00,,,0.02,WUHU216HW,2013-08-11 04:03:00,
2013-08-10 21:08:00,65.2,52.7,29.99,ESE,113,4.0,4.0,64,0.00,,,0.02,WUHU216HW,2013-08-11 04:08:00,
2013-08-10 21:13:00,64.6,52.6,29.99,NW,315,1.1,4.0,65,0.00,,,0.02,WUHU216HW,2013-08-11 04:13:00,
2013-08-10 21:18:00,63.9,51.8,30.00,SE,135,2.9,4.7,65,0.00,,,0.02,WUHU216HW,2013-08-11 04:18:00,
2013-08-10 21:23:00,63.4,51.8,30.00,WSW,248,0.7,4.7,66,0.00,,,0.02,WUHU216HW,2013-08-11 04:23:00,
2013-08-10 21:28:00,63.0,51.4,30.00,SE,135,1.1,3.4,66,0.00,,,0.02,WUHU216HW,2013-08-11 04:28:00,
2013-08-10 21:33:00,62.6,51.5,30.00,SSE,158,0.4,2.5,67,0.00,,,0.02,WUHU216HW,2013-08-11 04:33:00,
2013-08-10 21:38:00,62.3,51.2,30.00,NNE,23,0.2,2.2,67,0.00,,,0.02,WUHU216HW,2013-08-11 04:38:00,
2013-08-10 21:43:00,61.9,50.9,30.00,ENE,68,0.2,1.3,67,0.00,,,0.02,WUHU216HW,2013-08-11 04:43:00,
2013-08-10 21:48:00,61.7,51.1,30.00,NE,45,1.8,1.8,68,0.00,,,0.02,WUHU216HW,2013-08-11 04:48:00,
2013-08-10 21:53:00,61.6,50.9,30.01,SE,135,2.5,2.7,68,0.00,,,0.02,WUHU216HW,2013-08-11 04:53:00,
2013-08-10 21:58:00,61.4,50.8,30.00,SE,135,1.8,2.7,68,0.00,,,0.02,WUHU216HW,2013-08-11 04:58:00,
2013-08-10 22:03:00,61.0,50.5,30.00,SSE,158,3.8,4.9,68,0.00,,,0.02,WUHU216HW,2013-08-11 05:03:00,
2013-08-10 22:08:00,60.5,50.0,29.99,SE,135,0.7,4.9,68,0.00,,,0.02,WUHU216HW,2013-08-11 05:08:00,
2013-08-10 22:13:00,60.3,50.1,29.99,East,90,1.8,4.0,69,0.00,,,0.02,WUHU216HW,2013-08-11 05:13:00,
2013-08-10 22:18:00,60.1,50.0,29.99,ESE,113,2.9,3.8,69,0.00,,,0.02,WUHU216HW,2013-08-11 05:18:00,
2013-08-10 22:24:00,59.9,49.8,30.00,NE,45,1.1,4.3,69,0.00,,,0.02,WUHU216HW,2013-08-11 05:24:00,
2013-08-10 22:29:00,59.8,50.0,29.99,ENE,68,2.5,4.3,70,0.00,,,0.02,WUHU216HW,2013-08-11 05:29:00,
2013-08-10 22:34:00,59.4,49.7,29.99,NNE,23,2.2,3.1,70,0.00,,,0.02,WUHU216HW,2013-08-11 05:34:00,
2013-08-10 22:39:00,59.2,49.5,29.99,ENE,68,1.1,3.6,70,0.00,,,0.02,WUHU216HW,2013-08-11 05:39:00,
2013-08-10 22:44:00,59.0,49.7,29.98,East,90,2.0,3.6,71,0.00,,,0.02,WUHU216HW,2013-08-11 05:44:00,
2013-08-10 22:49:00,58.9,49.5,29.98,East,90,2.2,3.1,71,0.00,,,0.02,WUHU216HW,2013-08-11 05:49:00,
2013-08-10 22:54:00,58.9,49.5,29.99,SSE,158,2.0,3.1,71,0.00,,,0.02,WUHU216HW,2013-08-11 05:54:00,
2013-08-10 22:59:00,58.7,49.3,30.00,NNW,338,0.2,3.1,71,0.00,,,0.02,WUHU216HW,2013-08-11 05:59:00,
2013-08-10 23:04:00,58.7,49.7,30.00,NE,45,1.8,1.8,72,0.00,,,0.02,WUHU216HW,2013-08-11 06:04:00,
2013-08-10 23:09:00,58.7,49.3,30.00,SE,135,0.0,2.5,71,0.00,,,0.02,WUHU216HW,2013-08-11 06:09:00,
2013-08-10 23:14:00,58.7,49.7,30.00,ESE,113,0.0,2.5,72,0.00,,,0.02,WUHU216HW,2013-08-11 06:14:00,
2013-08-10 23:19:00,58.7,49.7,29.99,SSE,158,0.2,0.9,72,0.00,,,0.02,WUHU216HW,2013-08-11 06:19:00,
2013-08-10 23:24:00,58.7,49.7,30.00,ESE,113,1.8,1.8,72,0.00,,,0.02,WUHU216HW,2013-08-11 06:24:00,
2013-08-10 23:29:00,58.7,49.7,30.00,East,90,2.7,3.1,72,0.00,,,0.02,WUHU216HW,2013-08-11 06:29:00,
2013-08-10 23:34:00,58.7,49.7,30.00,East,90,2.5,3.6,72,0.00,,,0.02,WUHU216HW,2013-08-11 06:34:00,
2013-08-10 23:39:00,58.7,49.7,30.01,ESE,113,5.1,5.1,72,0.00,,,0.02,WUHU216HW,2013-08-11 06:39:00,
2013-08-10 23:44:00,58.7,49.7,30.01,SSE,158,2.9,5.1,72,0.00,,,0.02,WUHU216HW,2013-08-11 06:44:00,
2013-08-10 23:49:00,58.7,49.7,30.01,NE,45,3.4,4.0,72,0.00,,,0.02,WUHU216HW,2013-08-11 06:49:00,
2013-08-10 23:54:00,58.7,49.7,30.01,NNW,338,0.7,4.0,72,0.00,,,0.02,WUHU216HW,2013-08-11 06:54:00,
2013-08-10 23:59:00,58.7,50.0,30.01,NW,315,2.9,3.6,73,0.00,,,0.02,WUHU216HW,2013-08-11 06:59:00,